Wind_Speed
17 16 16 17 17 17 17 18 18 19 20 20 21 23 24 24 25 26 27 27 27 28 29 29 30 30 31 31 31 30 29 29 29 29 28 28 28 27
16 16 16 16 16 16 16 17 17 17 17 18 19 21 21 22 23 23 24 25 27 27 27 28 29 30 30 30 30 30 29 28 28 29 29 29 28 28
15 15 14 14 14 14 14 14 15 16 16 16 17 18 19 20 22 22 23 25 26 26 26 26 27 28 29 30 29 30 30 29 29 30 30 30 30 29
13 13 12 12 12 13 13 14 14 14 14 15 15 16 17 18 18 20 21 22 22 23 24 25 26 26 28 29 29 29 30 31 31 31 31 31 31 30
13 12 12 12 12 12 12 13 13 13 13 13 14 14 15 15 16 18 18 19 20 21 22 23 24 25 26 27 28 29 30 30 30 30 31 31 31 30
12 12 11 11 11 11 11 11 12 12 12 12 13 13 13 14 15 17 18 19 20 20 22 23 24 24 25 26 28 29 29 30 30 29 29 30 30 30
11 11 11 10 11 11 10 10 10 10 10 11 11 11 12 13 14 15 16 17 18 19 21 22 23 23 24 25 26 27 28 28 29 29 29 29 29 29
11 10 10 10 10 10 10 10 11 11 11 11 11 10 10 10 11 14 15 16 17 18 20 20 20 21 21 23 24 24 25 26 27 28 28 28 28 29
11 10 11 10 10 10 10 10 11 11 11 11 11 11 10 10 10 12 13 15 16 17 17 18 19 19 19 20 21 22 23 24 25 25 26 27 27 28
10 10 10 10 10 9 10 11 11 11 10 10 10 11 10 10 10 11 12 13 14 15 16 16 17 17 18 19 19 20 21 22 23 23 24 25 26 26
9 9 9 10 10 10 10 10 10 10 10 10 10 10 11 11 11 11 11 12 13 13 14 14 14 15 16 16 18 19 20 20 21 22 22 23 24 25
8 9 9 8 8 8 8 9 9 9 10 10 10 11 11 10 11 10 11 11 12 12 12 13 14 14 14 15 16 17 19 20 20 21 22 23 24 24
8 8 8 8 7 7 7 8 8 8 9 10 11 11 11 11 11 12 11 12 13 13 13 13 14 14 15 16 16 17 18 18 19 20 21 22 23 24
8 8 8 8 8 8 8 8 8 8 9 9 9 10 10 11 11 12 12 12 13 13 14 14 15 16 16 17 18 18 18 19 20 21 21 22 22 22
8 8 8 8 8 9 9 9 9 10 10 10 10 10 10 11 12 13 13 12 12 13 14 15 15 16 17 18 18 19 19 20 20 21 22 23 23 23
9 9 9 9 9 9 10 10 10 11 11 11 11 11 12 12 13 13 13 14 14 15 15 16 17 18 18 18 19 19 20 20 21 21 22 23 24 25
11 10 10 10 10 10 10 10 11 11 10 11 11 12 13 13 14 14 15 15 16 16 16 17 18 19 19 20 20 20 21 22 23 24 24 24 25 26
12 11 12 11 11 11 11 11 12 11 11 11 12 13 14 14 15 16 16 17 18 18 19 20 20 21 21 21 22 22 23 24 24 26 26 26 26 27
13 13 13 12 12 13 13 12 12 12 12 13 13 14 14 15 16 17 17 17 18 19 20 20 21 22 23 23 23 24 24 25 25 26 27 27 27 27
14 14 14 14 14 14 14 14 14 14 14 14 15 15 16 17 18 18 18 19 20 21 21 22 23 23 23 24 24 24 25 26 26 27 27 28 28 28
15 15 15 15 16 16 17 17 17 16 17 18 17 18 18 19 20 21 21 22 23 23 23 24 24 25 25 25 25 25 26 28 28 29 29 29 29 29
16 16 16 17 17 17 18 18 18 19 20 20 20 20 21 22 22 23 23 24 24 25 25 25 25 26 26 26 26 26 27 28 28 29 30 30 30 30
18 18 19 19 20 20 20 20 20 21 21 21 22 22 23 23 24 24 24 25 25 26 26 26 26 27 27 28 28 28 29 29 29 30 30 30 30 30
Wind_Direction
292 290 285 281 278 274 271 269 266 265 265 265 262 259 257 254 252 250 246 243 243 243 242 242 241 239 238 239 240 242 243 243 243 243 244 245 245 246
293 292 289 285 279 277 274 273 271 269 270 266 263 259 256 254 250 248 245 242 241 242 243 243 241 240 238 239 238 239 240 242 244 244 244 245 246 248
292 292 287 283 280 278 277 276 273 271 269 265 264 260 257 255 252 248 243 240 240 240 242 243 243 241 238 238 239 239 240 243 246 246 246 246 247 249
294 291 286 283 282 279 277 275 277 274 269 267 263 261 259 257 253 246 239 236 238 240 242 242 243 242 241 240 241 241 242 244 246 246 247 247 249 250
296 292 289 287 283 282 281 278 276 275 270 266 262 262 260 257 253 246 240 239 241 242 243 243 245 244 242 242 243 243 244 245 247 248 247 248 249 249
297 296 292 286 284 285 283 280 276 274 271 266 264 263 261 256 252 246 242 243 243 242 244 245 245 245 245 245 244 244 245 246 247 248 248 248 249 249
302 299 294 288 284 283 283 280 278 277 274 270 266 262 262 259 255 249 245 245 247 247 248 247 245 245 246 248 247 246 246 246 247 248 248 248 248 248
304 302 295 287 283 282 282 279 276 275 272 272 268 266 267 262 256 248 247 248 250 250 250 248 246 245 246 248 248 248 247 246 247 247 248 248 249 250
306 300 297 289 286 280 281 281 279 277 275 272 266 264 267 268 262 255 253 253 252 252 251 250 250 248 248 250 248 247 247 247 248 248 248 249 250 251
309 306 301 296 294 288 286 284 282 281 278 274 270 271 270 272 262 257 259 258 256 256 255 253 252 251 252 253 251 249 248 249 250 250 249 249 251 251
313 315 311 305 302 298 291 286 282 278 278 277 273 273 272 270 268 264 263 262 257 257 255 253 251 253 253 253 252 251 251 252 251 250 251 251 253 254
322 319 318 314 310 307 304 297 287 281 281 281 280 277 276 271 267 266 267 265 259 257 257 255 254 255 256 255 254 252 252 254 254 254 254 254 254 255
328 324 321 318 317 315 312 311 300 291 289 287 286 283 284 282 278 275 274 272 266 263 263 261 260 259 258 258 258 257 255 255 256 256 256 255 256 256
333 331 327 325 321 318 312 311 305 299 299 293 293 291 289 289 286 282 280 274 268 267 266 264 262 260 260 260 261 261 258 258 258 258 257 257 257 259
341 339 334 329 324 317 311 309 307 300 297 294 291 292 292 290 287 285 281 277 275 272 270 267 264 261 261 263 262 262 261 260 259 259 258 258 259 262
341 342 340 335 328 321 316 313 310 304 296 291 289 291 290 290 289 286 283 282 277 275 274 273 269 266 264 264 265 264 263 262 261 261 261 261 262 264
336 335 334 332 329 326 323 319 315 310 301 293 291 292 290 289 289 286 283 283 281 278 277 277 276 274 270 269 267 267 265 264 263 263 264 264 265 267
337 331 327 326 324 322 320 317 315 312 306 300 296 293 292 289 288 288 287 285 282 279 278 278 277 276 275 272 269 269 268 268 266 265 264 265 266 267
330 327 323 320 317 316 315 314 312 311 309 302 297 294 292 290 288 287 286 286 286 283 281 280 280 279 278 274 272 271 271 269 268 267 266 266 267 268
329 326 323 318 314 311 310 310 308 307 307 307 304 299 296 294 291 288 287 287 287 285 282 282 282 281 279 276 273 271 272 272 271 270 269 268 268 269
330 327 324 320 317 314 312 310 307 305 304 304 301 297 295 295 295 292 290 289 288 287 284 282 283 282 280 278 277 274 272 271 271 270 270 270 271 271
330 326 322 320 316 312 309 309 306 304 304 303 300 298 296 295 295 295 294 292 291 289 287 284 282 281 281 281 280 278 277 274 273 272 272 271 271 271
327 326 324 321 318 314 312 309 307 305 303 301 300 299 297 296 297 296 294 293 291 291 289 286 283 281 280 280 280 279 278 276 274 273 272 272 272 272
Height
5731 5730 5728 5727 5727 5726 5726 5726 5726 5726 5726 5725 5725 5725 5726 5727 5728 5729 5731 5733 5736 5738 5740 5742 5744 5746 5749 5751 5754 5756 5758 5760 5762 5764 5766 5767 5768 5770
5727 5725 5724 5723 5722 5721 5721 5720 5720 5720 5720 5719 5719 5719 5719 5720 5721 5722 5725 5727 5729 5731 5733 5735 5736 5738 5741 5743 5746 5748 5751 5753 5755 5757 5758 5760 5761 5762
5722 5721 5720 5719 5718 5717 5716 5716 5715 5715 5715 5714 5713 5713 5714 5714 5715 5716 5718 5720 5722 5724 5726 5728 5729 5731 5733 5736 5738 5741 5743 5745 5747 5749 5751 5752 5754 5755
5718 5717 5716 5715 5714 5713 5712 5712 5711 5710 5710 5709 5709 5709 5709 5709 5709 5711 5712 5714 5716 5718 5719 5721 5722 5724 5726 5728 5730 5733 5735 5737 5739 5741 5743 5745 5746 5747
5714 5713 5712 5711 5710 5709 5709 5708 5707 5706 5706 5705 5705 5704 5704 5704 5705 5706 5707 5709 5710 5711 5712 5714 5715 5717 5719 5721 5723 5725 5727 5729 5731 5733 5734 5736 5737 5739
5710 5709 5708 5707 5707 5706 5705 5704 5703 5703 5702 5702 5701 5701 5700 5700 5700 5701 5702 5703 5704 5705 5707 5708 5709 5710 5712 5713 5715 5717 5719 5721 5723 5725 5726 5728 5729 5731
5707 5706 5705 5704 5703 5703 5702 5701 5700 5699 5699 5698 5697 5697 5696 5696 5696 5697 5698 5699 5699 5700 5701 5702 5703 5704 5705 5707 5708 5710 5711 5713 5715 5717 5719 5720 5721 5723
5705 5703 5702 5701 5700 5699 5699 5698 5697 5697 5696 5695 5694 5694 5693 5693 5692 5693 5693 5694 5695 5696 5696 5696 5697 5698 5699 5700 5701 5703 5704 5706 5708 5709 5711 5712 5713 5715
5702 5700 5699 5698 5697 5696 5695 5695 5694 5693 5693 5692 5691 5691 5690 5690 5690 5689 5689 5690 5690 5691 5691 5692 5692 5693 5694 5694 5695 5696 5698 5699 5700 5702 5703 5704 5705 5707
5699 5698 5697 5695 5694 5693 5693 5692 5691 5690 5689 5688 5688 5688 5687 5687 5687 5686 5686 5686 5687 5687 5687 5687 5687 5688 5689 5689 5690 5691 5692 5693 5693 5695 5696 5697 5698 5699
5697 5696 5695 5693 5692 5691 5690 5689 5688 5687 5687 5686 5685 5685 5684 5684 5683 5683 5683 5683 5683 5683 5683 5683 5683 5684 5684 5685 5685 5685 5686 5687 5687 5688 5689 5690 5691 5692
5696 5694 5693 5691 5690 5689 5687 5686 5685 5685 5684 5683 5683 5682 5681 5681 5681 5680 5680 5680 5679 5679 5679 5679 5679 5680 5680 5680 5680 5680 5681 5681 5682 5682 5683 5684 5685 5685
5694 5693 5691 5690 5688 5687 5686 5685 5683 5683 5682 5681 5680 5679 5678 5678 5677 5677 5676 5676 5676 5676 5675 5675 5675 5675 5675 5676 5675 5675 5675 5676 5676 5676 5677 5677 5678 5678
5693 5691 5690 5688 5687 5685 5684 5683 5681 5680 5679 5678 5677 5677 5676 5675 5674 5673 5673 5672 5672 5671 5671 5671 5671 5671 5671 5670 5670 5670 5670 5670 5670 5670 5670 5671 5671 5671
5692 5690 5688 5687 5685 5684 5682 5681 5679 5678 5677 5676 5675 5674 5673 5672 5671 5670 5669 5669 5668 5667 5667 5666 5666 5666 5665 5665 5665 5665 5664 5664 5664 5664 5664 5664 5664 5664
5691 5689 5687 5685 5683 5682 5680 5678 5677 5675 5674 5673 5672 5671 5670 5669 5667 5666 5665 5664 5664 5663 5662 5661 5661 5660 5660 5660 5659 5659 5658 5658 5658 5657 5657 5657 5657 5657
5690 5688 5686 5684 5682 5680 5678 5676 5674 5673 5671 5670 5669 5668 5666 5665 5664 5663 5662 5661 5660 5658 5657 5656 5655 5654 5654 5653 5653 5652 5652 5651 5651 5650 5650 5650 5650 5649
5689 5686 5684 5682 5680 5678 5676 5674 5672 5670 5668 5667 5665 5664 5663 5661 5660 5659 5657 5656 5655 5653 5652 5650 5649 5648 5648 5647 5646 5645 5645 5644 5643 5643 5642 5642 5642 5642
5687 5684 5682 5679 5677 5675 5673 5671 5669 5667 5665 5663 5661 5660 5658 5657 5655 5654 5652 5650 5649 5647 5646 5644 5643 5641 5640 5640 5639 5638 5637 5636 5635 5635 5634 5634 5633 5633
5684 5681 5679 5676 5674 5672 5670 5668 5666 5664 5662 5660 5658 5656 5654 5652 5650 5648 5646 5644 5643 5641 5639 5638 5636 5634 5632 5632 5631 5631 5629 5628 5627 5626 5625 5625 5624 5624
5681 5678 5676 5673 5670 5668 5666 5664 5661 5659 5657 5655 5652 5650 5648 5646 5644 5642 5640 5638 5636 5634 5632 5630 5628 5626 5624 5623 5622 5622 5620 5619 5618 5617 5616 5616 5615 5614
5678 5675 5672 5669 5667 5664 5661 5659 5656 5654 5651 5649 5646 5644 5642 5639 5637 5635 5632 5630 5628 5626 5624 5622 5620 5618 5616 5615 5613 5612 5611 5610 5608 5607 5606 5606 5605 5604
5675 5672 5668 5665 5662 5659 5656 5653 5650 5648 5645 5643 5640 5637 5635 5632 5629 5627 5624 5622 5620 5617 5615 5613 5611 5610 5608 5606 5604 5603 5602 5600 5599 5598 5597 5596 5595 5594